This is the latest recevied weather packets stored in our database for station/object KD7AWQ. If no packets are shown the sender has not sent any weather packets the latest 10 day(s).
| Time | Temp. | Humidity | Pressure | Rain* | Wind** | Luminosity | Snow |
|---|---|---|---|---|---|---|---|
| 1777635885 | 12.78° C | 64% | 1181 hPa | 0 mm | - | 0 W/m² | - |
| 1777635582 | 12.78° C | 64% | 1181 hPa | 0 mm | - | 0 W/m² | - |
| 1777635278 | 12.78° C | 65% | 1180.9 hPa | 0 mm | - | 0 W/m² | - |
| 1777634975 | 12.78° C | 65% | 1181 hPa | 0 mm | - | 0 W/m² | - |
| 1777634671 | 12.78° C | 65% | 1180.9 hPa | 0 mm | - | 0 W/m² | - |
| 1777634369 | 12.78° C | 66% | 1181 hPa | 0 mm | - | 0 W/m² | - |
| 1777634066 | 12.78° C | 67% | 1181 hPa | 0 mm | - | 0 W/m² | - |
| 1777633762 | 12.22° C | 67% | 1180.9 hPa | 0 mm | - | 0 W/m² | - |
| 1777633460 | 12.22° C | 66% | 1180.7 hPa | 0 mm | - | 0 W/m² | - |
| 1777633158 | 12.78° C | 64% | 1181 hPa | 0 mm | - | 0 W/m² | - |
| 1777632549 | 12.78° C | 67% | 1180.7 hPa | 0 mm | - | 0 W/m² | - |
| 1777631944 | 12.22° C | 70% | 1180.7 hPa | 0 mm | - | 0 W/m² | - |
| 1777631643 | 12.22° C | 69% | 1180.7 hPa | 0 mm | - | 0 W/m² | - |
| 1777631339 | 11.67° C | 69% | 1180.5 hPa | 0 mm | - | 0 W/m² | - |
| 1777631036 | 11.67° C | 70% | 1181 hPa | 0 mm | - | 0 W/m² | - |
| 1777630733 | 11.67° C | 69% | 1181 hPa | 0 mm | - | 0 W/m² | - |
| 1777630429 | 11.67° C | 69% | 1181.1 hPa | 0 mm | - | 0 W/m² | - |
| 1777630127 | 11.67° C | 69% | 1180.6 hPa | 0 mm | - | 0 W/m² | - |
| 1777629824 | 11.67° C | 72% | 1181 hPa | 0 mm | - | 0 W/m² | - |
| 1777629521 | 11.67° C | 74% | 1180.6 hPa | 0 mm | - | 0 W/m² | - |
| 1777629217 | 11.67° C | 74% | 1180.7 hPa | 0 mm | - | 0 W/m² | - |
| 1777628913 | 11.67° C | 73% | 1180.9 hPa | 0 mm | - | 0 W/m² | - |
| 1777628611 | 11.67° C | 73% | 1180.5 hPa | 0 mm | - | 0 W/m² | - |
| 1777628306 | 11.67° C | 73% | 1180.6 hPa | 0 mm | - | 0 W/m² | - |
| 1777628003 | 11.67° C | 74% | 1180.4 hPa | 0 mm | - | 0 W/m² | - |
* Rain latest hour (hover to see other rain measurements)
** Current wind speed in m/s (hover to see current wind gust speed)